Change the Weather History Date:

Sunday, September 15, 2013

  Actual Average Record
Temperature  
Mean Temperature 56 °F -  
Max Temperature 64 °F 69 °F 93 °F (1948)
Min Temperature 48 °F 47 °F 28 °F (2011)
Degree Days  
Heating Degree Days 9    
Growing Degree Days 6 (Base 50)    
Moisture  
Dew Point 55 °F    
Average Humidity 93    
Maximum Humidity 100    
Minimum Humidity 73    
Precipitation  
Precipitation 0.61 in - - ()
Sea Level Pressure  
Sea Level Pressure 30.08 in    
Wind  
Wind Speed 8 mph (NNE)    
Max Wind Speed 14 mph    
Max Gust Speed 20 mph    
Visibility 10 miles    
Events Rain    
Averages and records for this station are not official NWS values.
T = Trace of Precipitation, MM = Missing Value Source: NWS Daily Summary

Daily Weather History Graph

Daily Weather History Graph

Search for Another Location

Airport or City:

Trip Planner

Search our weather history database for the weather conditions in past years. The results will help you decide how hot, cold, wet, or windy it might be!

Date:

Astronomy

Sep. 15, 2013 Rise Set
Actual Time 6:52 AM CDT 7:23 PM CDT
Civil Twilight 6:23 AM CDT 7:52 PM CDT
Nautical Twilight 5:48 AM CDT 8:26 PM CDT
Astronomical Twilight 5:13 AM CDT 9:02 PM CDT
Moon 4:57 PM CDT (9/15) 2:23 AM CDT (9/15)
Length of Visible Light 13h 28m
Length of Day
12h 30m
Waxing Gibbous, 82% of the Moon is Illuminated
Sep 15
Waxing Gibbous
Sep 19
Full
Sep 26
Last Quarter
Oct 4
New
Oct 11
First Quarter

Hourly Weather History & Observations

Time (CDT) Temp. Dew Point Humidity Pressure Visibility Wind Dir Wind Speed Gust Speed Precip Events Conditions
12:14 AM 55.4 °F 55.4 °F 100% 29.90 in 10.0 mi ESE 10.4 mph - N/A   Overcast
12:34 AM 55.4 °F 55.4 °F 100% 29.89 in 10.0 mi ESE 11.5 mph - N/A   Overcast
12:54 AM 55.4 °F 55.4 °F 100% 29.89 in 10.0 mi ESE 11.5 mph 16.1 mph N/A   Overcast
1:14 AM 55.4 °F 55.4 °F 100% 29.88 in 10.0 mi ESE 10.4 mph - N/A   Overcast
1:34 AM 55.4 °F 55.4 °F 100% 29.88 in 10.0 mi ESE 10.4 mph - N/A   Overcast
1:54 AM 55.4 °F 55.4 °F 100% 29.89 in 10.0 mi East 5.8 mph - N/A   Overcast
2:14 AM 55.4 °F 55.4 °F 100% 29.89 in 10.0 mi ENE 4.6 mph - N/A   Overcast
2:34 AM 55.4 °F 55.4 °F 100% 29.89 in 10.0 mi ENE 4.6 mph - N/A   Overcast
2:54 AM 55.4 °F 55.4 °F 100% 29.89 in 10.0 mi NE 4.6 mph - N/A   Overcast
3:14 AM 55.4 °F 55.4 °F 100% 29.89 in 7.0 mi ENE 4.6 mph - 0.01 in   Drizzle
3:34 AM 55.4 °F 55.4 °F 100% 29.89 in 7.0 mi ESE 3.5 mph - 0.07 in Rain Rain
3:54 AM 55.4 °F 55.4 °F 100% 29.89 in 5.0 mi ESE 5.8 mph - 0.25 in Rain Heavy Rain
4:14 AM 55.4 °F 55.4 °F 100% 29.89 in 7.0 mi ESE 4.6 mph - 0.11 in Rain Heavy Rain
4:34 AM 55.4 °F 55.4 °F 100% 29.89 in 10.0 mi East 3.5 mph - 0.15 in Rain Light Rain
4:54 AM 55.4 °F 55.4 °F 100% 29.89 in 10.0 mi Calm Calm - 0.16 in Rain Light Rain
5:14 AM 55.4 °F 55.4 °F 100% 29.89 in 7.0 mi NE 4.6 mph - 0.04 in Rain Rain
5:34 AM 55.4 °F 55.4 °F 100% 29.92 in 10.0 mi NNW 3.5 mph - 0.09 in Rain Light Rain
5:54 AM 55.4 °F 55.4 °F 100% 29.92 in 3.0 mi Calm Calm - 0.16 in Rain Heavy Rain
6:14 AM 55.4 °F 55.4 °F 100% 29.93 in 10.0 mi North 3.5 mph - 0.03 in Rain Light Rain
6:34 AM 55.4 °F 55.4 °F 100% 29.93 in 10.0 mi North 5.8 mph - 0.04 in   Light Drizzle
6:54 AM 55.4 °F 55.4 °F 100% 29.95 in 10.0 mi North 5.8 mph - 0.04 in   Overcast
7:14 AM 55.4 °F 55.4 °F 100% 29.96 in 10.0 mi North 6.9 mph - N/A   Overcast
7:34 AM 55.4 °F 55.4 °F 100% 29.96 in 10.0 mi North 6.9 mph - N/A   Overcast
7:54 AM 55.4 °F 55.4 °F 100% 29.98 in 10.0 mi North 8.1 mph - N/A   Overcast
8:14 AM 55.4 °F 55.4 °F 100% 29.98 in 10.0 mi North 8.1 mph - N/A   Overcast
8:34 AM 55.4 °F 55.4 °F 100% 29.99 in 7.0 mi North 8.1 mph - N/A   Overcast
8:54 AM 55.4 °F 55.4 °F 100% 30.00 in 7.0 mi North 9.2 mph 16.1 mph N/A   Overcast
9:14 AM 55.4 °F 55.4 °F 100% 30.01 in 10.0 mi North 9.2 mph 17.3 mph N/A   Overcast
9:34 AM 57.2 °F 57.2 °F 100% 30.02 in 10.0 mi North 12.7 mph 16.1 mph N/A   Overcast
9:54 AM 57.2 °F 57.2 °F 100% 30.03 in 10.0 mi North 10.4 mph 16.1 mph N/A   Overcast
10:14 AM 57.2 °F 57.2 °F 100% 30.04 in 10.0 mi North 10.4 mph 17.3 mph N/A   Overcast
10:34 AM 57.2 °F 57.2 °F 100% 30.05 in 10.0 mi NNE 13.8 mph 19.6 mph N/A   Overcast
10:54 AM 57.2 °F 57.2 °F 100% 30.06 in 10.0 mi North 11.5 mph 17.3 mph N/A   Overcast
11:14 AM 59.0 °F 57.2 °F 94% 30.07 in 10.0 mi NNE 10.4 mph - N/A   Overcast
11:34 AM 57.2 °F 57.2 °F 100% 30.08 in 10.0 mi NNE 5.8 mph - N/A   Overcast
11:54 AM 59.0 °F 57.2 °F 94% 30.08 in 10.0 mi NNE 10.4 mph 17.3 mph N/A   Overcast
12:13 PM 60.8 °F 57.2 °F 88% 30.09 in 10.0 mi NNE 12.7 mph 17.3 mph N/A   Overcast
12:34 PM 60.8 °F 57.2 °F 88% 30.10 in 10.0 mi North 13.8 mph 17.3 mph N/A   Overcast
12:54 PM 60.8 °F 57.2 °F 88% 30.11 in 10.0 mi North 10.4 mph 16.1 mph N/A   Overcast
1:13 PM 62.6 °F 57.2 °F 82% 30.12 in 10.0 mi North 8.1 mph - N/A   Overcast
1:34 PM 62.6 °F 55.4 °F 77% 30.12 in 10.0 mi North 9.2 mph 17.3 mph N/A   Overcast
1:54 PM 62.6 °F 55.4 °F 77% 30.13 in 10.0 mi North 10.4 mph - N/A   Overcast
2:14 PM 62.6 °F 55.4 °F 77% 30.14 in 10.0 mi North 9.2 mph - N/A   Overcast
2:33 PM 62.6 °F 57.2 °F 82% 30.14 in 10.0 mi North 9.2 mph - N/A   Overcast
2:54 PM 62.6 °F 55.4 °F 77% 30.14 in 10.0 mi North 12.7 mph 17.3 mph N/A   Overcast
3:14 PM 62.6 °F 57.2 °F 82% 30.15 in 10.0 mi North 8.1 mph - N/A   Overcast
3:31 PM 62.6 °F 55.4 °F 77% 30.15 in 10.0 mi North 11.5 mph 17.3 mph N/A   Overcast
3:54 PM 62.6 °F 55.4 °F 77% 30.16 in 10.0 mi North 9.2 mph - N/A   Overcast
4:14 PM 62.6 °F 55.4 °F 77% 30.17 in 10.0 mi North 8.1 mph - N/A   Overcast
4:34 PM 64.4 °F 55.4 °F 73% 30.17 in 10.0 mi NNE 9.2 mph - N/A   Mostly Cloudy
4:54 PM 64.4 °F 57.2 °F 77% 30.18 in 10.0 mi North 6.9 mph - N/A   Mostly Cloudy
5:14 PM 62.6 °F 57.2 °F 82% 30.18 in 10.0 mi North 8.1 mph - N/A   Overcast
5:34 PM 62.6 °F 57.2 °F 82% 30.19 in 10.0 mi North 6.9 mph - N/A   Mostly Cloudy
5:54 PM 62.6 °F 57.2 °F 82% 30.20 in 10.0 mi NNW 5.8 mph - N/A   Scattered Clouds
6:14 PM 62.6 °F 55.4 °F 77% 30.20 in 10.0 mi North 10.4 mph 18.4 mph N/A   Clear
6:34 PM 62.6 °F 55.4 °F 77% 30.21 in 10.0 mi North 10.4 mph - N/A   Clear
6:54 PM 60.8 °F 55.4 °F 82% 30.22 in 10.0 mi North 8.1 mph - N/A   Clear
7:13 PM 59.0 °F 55.4 °F 88% 30.22 in 10.0 mi North 6.9 mph - N/A   Clear
7:34 PM 57.2 °F 55.4 °F 94% 30.23 in 10.0 mi North 4.6 mph - N/A   Clear
7:54 PM 57.2 °F 53.6 °F 88% 30.24 in 10.0 mi North 4.6 mph - N/A   Clear
8:14 PM 55.4 °F 53.6 °F 94% 30.25 in 10.0 mi North 4.6 mph - N/A   Scattered Clouds
8:34 PM 55.4 °F 53.6 °F 94% 30.25 in 10.0 mi NNE 8.1 mph - N/A   Mostly Cloudy
8:54 PM 55.4 °F 51.8 °F 88% 30.26 in 10.0 mi NNE 4.6 mph - N/A   Scattered Clouds
9:14 PM 53.6 °F 51.8 °F 94% 30.27 in 10.0 mi NNE 3.5 mph - N/A   Clear
9:34 PM 53.6 °F 51.8 °F 94% 30.28 in 10.0 mi NNE 3.5 mph - N/A   Clear
9:54 PM 51.8 °F 51.8 °F 100% 30.28 in 10.0 mi Calm Calm - N/A   Clear
10:14 PM 51.8 °F 51.8 °F 100% 30.29 in 10.0 mi NNE 3.5 mph - N/A   Clear
10:34 PM 51.8 °F 50.0 °F 94% 30.30 in 10.0 mi NNE 4.6 mph - N/A   Clear
10:53 PM 50.0 °F 48.2 °F 94% 30.30 in 10.0 mi Calm Calm - N/A   Clear
11:14 PM 50.0 °F 48.2 °F 94% 30.31 in 10.0 mi NNE 3.5 mph - N/A   Clear
11:34 PM 48.2 °F 48.2 °F 100% 30.31 in 10.0 mi Calm Calm - N/A   Clear
11:54 PM 48.2 °F 48.2 °F 100% 30.32 in 10.0 mi Calm Calm - N/A   Clear